STARLINK-2139, 48554

Orbit data source: Space-Track

STARLINK-2139, 48554 is a payload satellite owned by SpaceX/Seattle (US) in LEO that was launched on Sat, 15 May 2021 UTC via an FALCON 9 launch vehicle from the Air Force Eastern Test Range (AFETR). Payload-class satellites include a variety of spacecraft equipped with specific instruments for various scientific and technological missions. These include communications satellites like Starlink; space stations such as the ISS; scientific satellites like the Hubble; Earth observation satellites from companies like Planet Labs, Umbra, and HawkEye 360; GPS; miniature CubeSats for education and research; and military/defense satellites.

Loading next visibility...
Identifier
48554, 2021-041B
Orbit
LEO
Country
Flag of USUS
Related business
Manufacturer
SpaceX/Seattle
Mission
Operational Commercial Communications
Bus & Motor
STARLINK, Unknown motor
Mass
260 kg wet, ~248 kg dry
Launch date (UTC)
2021-05-15 (5 years ago)
Launch vehicle
FALCON 9
Launch site
Air Force Eastern Test Range (AFETR)
Object type
Payload
Rocket body
Debris
Shape & HBR
Box + 1 Pan, 10.1 m
Radar Cross Section
13.562 m², Large (>1 m²)

Expand to show TLE details & history
Last TLE update: 23 hours ago

TLE from 23 hours ago
0 STARLINK-2139
1 48554U 21041B   25349.85309546  .00000691  00000-0  65271-4 0  9998
2 48554  53.0551 148.2820 0001384  92.1091 268.0056 15.06396998252563
Epoch: 2025-12-15T20:28Z
TLE epoch observation values (Epoch: 2025-12-15T20:28:27.447Z)
Latitude
-0.00007°
Longitude
116.42188°
Altitude
548.133 km
Speed
7.589 km/s
True Right ascension
09h 53m 07s
True Declination
0° 00' 00"
Sunlit
Object was in partial shadow at epoch
Visualization orbit readout
Latitude
Unknown
Longitude
Unknown
Altitude
Unknown
Speed
Unknown
Apparent Right ascension
Unknown
Apparent Declination
Unknown
Sunlit
N/A
Visualization observer readout
Local Sidereal Time
17:42:40
Azimuth
Unknown
Elevation
Unknown
Doppler factor
Unknown
Orbital elements
Apogee altitude
548.45 km
Perigee altitude
546.533 km
Semi-major axis
6,925.628 km
Eccentricity
0.00014
Inclination
53.0551°
RAAN
148.282°
Arg. of periapsis
92.1091°
True anomaly
267.98975°
Mean anomaly
268.0056°
Eccentric anomaly
267.99768°
Mean motion
3.76578 °/min
Orbital period
95.6 mins
BSTAR
0.000065271
Loading maneuver chart data...
Computing Atmospheric mass density...
Loading historical data...
Loading historical data...
Loading historical data...
Loading historical data...
Loading historical data...
Loading historical data...
Loading historical data...

Documentation

Showing up to 5 results
|